This demonstration page uses our WeatherBlox Daily Observations layout. Learn more.

Left ArrowRight Arrow

Hourly Observations for June 20, 2017

Temp ( °F °C ) Dew Point ( °F °C ) Humidity (%) Winds ( mph kmh ) Pressure ( in mb ) Visibility ( mi km ) Precip ( " mm )
12:56 am 00:56 Mostly Clear 60 15.6 56 13.3 86 86 Calm 29.99 1016 10 16 0.00 0.00
1:56 am 01:56 Mostly Cloudy 60 15.7 56 13.5 87 87 Calm 29.99 1016 10 16 0.00 0.00
2:56 am 02:56 Partly Cloudy 59 14.9 57 13.9 94 94 Calm 29.98 1015 10 16 0.00 0.00
3:56 am 03:56 Cloudy 60 15.6 57 14 90 90 Calm 29.98 1015 10 16 0.00 0.00
4:56 am 04:56 Cloudy 62 16.5 57 14 85 85 Calm 29.98 1015 10 16 0.00 0.00
5:56 am 05:56 Cloudy 62 16.4 58 14.4 88 88 Calm 29.98 1015 10 16 0.00 0.00
6:56 am 06:56 Cloudy 65 18.3 59 15.2 82 82 S 5 7 29.97 1015 10 16 0.00 0.00
7:56 am 07:56 Cloudy 69 20.3 59 14.9 71 71 SW 3 6 29.97 1015 10 16 0.00 0.00
8:56 am 08:56 Sunny 75 23.8 59 15 58 58 SSW 6 9 29.97 1015 10 16 0.00 0.00
9:56 am 09:56 Sunny 80 26.9 60 15.6 50 50 W 8 13 29.96 1015 10 16 0.00 0.00
10:56 am 10:56 Sunny 85 29.2 59 14.9 42 42 W 7 11 29.94 1014 10 16 0.00 0.00
11:56 am 11:56 Sunny 88 31 57 13.7 35 35 W 8 13 29.93 1014 10 16 0.00 0.00
12:56 pm 12:56 Sunny 90 32 56 13.2 32 32 W 8 13 29.92 1013 10 16 0.00 0.00
1:56 pm 13:56 Sunny 91 33 53 11.5 27 27 W 10 17 29.90 1013 10 16 0.00 0.00
2:56 pm 14:56 Sunny 92 33.3 52 11.2 26 26 WNW 13 20 29.90 1013 10 16 0.00 0.00
3:56 pm 15:56 Sunny 92 33.4 51 10.7 25 25 NW 9 15 29.90 1013 10 16 0.00 0.00
4:56 pm 16:56 Sunny 92 33.4 51 10.7 25 25 NNW 6 9 29.89 1012 10 16 0.00 0.00
5:56 pm 17:56 Sunny 91 33 49 9.7 24 24 NW 7 11 29.87 1011 10 16 0.00 0.00
6:56 pm 18:56 Sunny 89 31.9 53 11.6 29 29 NE 7 11 29.85 1011 10 16 0.00 0.00
7:56 pm 19:56 Sunny 86 29.8 58 14.3 39 39 NNE 5 7 29.87 1011 10 16 0.00 0.00
8:56 pm 20:56 Sunny 80 26.5 59 15.2 50 50 NE 3 6 29.88 1012 10 16 0.00 0.00
9:56 pm 21:56 Clear 72 22 61 16 69 69 Calm 29.89 1012 10 16 0.00 0.00
10:56 pm 22:56 Clear 71 21.9 58 14.3 62 62 E 6 9 29.88 1012 10 16 0.00 0.00
11:56 pm 23:56 Clear 73 22.9 58 14.2 58 58 SE 7 11 29.88 1012 10 16 0.00 0.00

Powered by AerisWeather